Tracking 30922 objects as of 2-Jul-2025
HD Live streaming from Space Station
objects crossing your sky now

SL-16 DEB

Track SL-16 DEB now!
10-day predictions


NORAD ID: 22420
Int'l Code: 1992-093DM
Perigee: 353.1 km
Apogee: 365.0 km
Inclination: 71.0 °
Period: 91.6 minutes
Semi major axis: 6730 km
RCS: 0.065 m2 (small)
Launch date: December 25, 1992
Source: Commonwealth of Independent States (former USSR) (CIS)
Launch site: TYURATAM MISSILE AND SPACE COMPLEX (TTMTR)

Note: This is SATELLITE DEBRIS
Your satellite tracking list
Your tracking list is empty




NASA's NSSDC Master Catalog

Two Line Element Set (TLE):
1 22420U 92093DM  25182.60400054  .00269427  00000-0  19527-2 0  9996
2 22420  70.9634 264.3527 0008897 205.5985 154.4780 15.72447250735669
Source of the keplerian elements: AFSPC